Location: Unspecified
(41.5000°N, 0.0000°E)
Time: 01:36:41
(UTC+00:00)

Altair - All Passes

Search period start: 26 June 2019 00:00
Search period end: 06 July 2019 00:00
Orbit: 1501 x 1683 km, 47.2° (Epoch: 25 June)

Date Brightness Start Highest point End Pass type
(mag) Time Alt. Az. Time Alt. Az. Time Alt. Az.
26 Jun - 01:31:12 10° WNW 01:40:40 50° SW 01:50:17 10° SSE visible
26 Jun - 03:39:43 10° W 03:43:44 13° WSW 03:47:47 10° SW visible
26 Jun - 16:48:00 10° S 16:55:50 32° SE 17:03:53 10° ENE daylight
26 Jun - 18:50:15 10° WSW 18:59:40 85° SSE 19:09:29 10° ENE daylight
26 Jun - 20:55:30 10° W 21:05:01 64° N 21:14:55 10° ENE visible
26 Jun - 23:00:58 10° WNW 23:10:48 76° NNE 23:20:56 10° ESE visible
27 Jun - 01:05:58 10° WNW 01:15:31 54° SW 01:25:15 10° SSE visible
27 Jun - 03:13:43 10° W 03:18:42 15° WSW 03:23:45 10° SSW visible
27 Jun - 16:23:16 10° S 16:30:47 29° SE 16:38:31 10° ENE daylight
27 Jun - 18:25:08 10° SW 18:34:29 81° SSE 18:44:15 10° ENE daylight
27 Jun - 20:30:16 10° W 20:39:45 64° N 20:49:38 10° ENE visible
27 Jun - 22:35:46 10° WNW 22:45:32 73° NNE 22:55:39 10° ESE visible
28 Jun - 00:40:45 10° WNW 00:50:22 58° SW 01:00:12 10° SE visible
28 Jun - 02:47:55 10° W 02:53:40 17° SW 02:59:28 10° SSW visible
28 Jun - 15:58:34 10° S 16:05:45 26° SE 16:13:06 10° ENE daylight
28 Jun - 18:00:02 10° SW 18:09:19 76° SSE 18:19:01 10° ENE daylight
28 Jun - 20:05:03 10° W 20:14:29 65° N 20:24:21 10° ENE visible
28 Jun - 22:10:34 10° WNW 22:20:17 71° NNE 22:30:21 10° E visible
29 Jun - 00:15:32 10° WNW 00:25:12 62° SW 00:35:07 10° SE visible
29 Jun - 02:22:16 10° W 02:28:37 19° SW 02:35:03 10° SSW visible
29 Jun - 15:33:55 10° S 15:40:43 24° SE 15:47:40 10° E daylight
29 Jun - 17:34:56 10° SW 17:44:10 72° SSE 17:53:47 10° ENE daylight
29 Jun - 19:39:49 10° W 19:49:14 66° N 19:59:04 10° ENE daylight
29 Jun - 21:45:22 10° WNW 21:55:02 69° NNE 22:05:04 10° E visible
29 Jun - 23:50:20 10° WNW 00:00:02 66° SW 00:10:01 10° SE visible
30 Jun - 01:56:42 10° W 02:03:33 21° SW 02:10:31 10° S visible
30 Jun - 15:09:21 10° S 15:15:42 21° SE 15:22:10 10° E daylight
30 Jun - 17:09:53 10° SW 17:19:02 68° SE 17:28:34 10° ENE daylight
30 Jun - 19:14:35 10° W 19:23:59 68° NNW 19:33:47 10° ENE daylight
30 Jun - 21:20:10 10° WNW 21:29:47 68° NNE 21:39:45 10° E visible
30 Jun - 23:25:09 10° WNW 23:34:52 70° SW 23:44:53 10° SE visible
01 Jul - 01:31:13 10° W 01:38:30 24° SW 01:45:54 10° S visible
01 Jul - 14:44:51 10° SSE 14:50:41 19° SE 14:56:36 10° E daylight
01 Jul - 16:44:50 10° SW 16:53:54 64° SE 17:03:20 10° ENE daylight
01 Jul - 18:49:22 10° W 18:58:44 69° NNW 19:08:31 10° ENE daylight
01 Jul - 20:54:57 10° WNW 21:04:31 66° N 21:14:27 10° E visible
01 Jul - 22:59:57 10° WNW 23:09:42 74° SSW 23:19:44 10° SE visible
02 Jul - 01:05:47 10° WNW 01:13:25 26° SW 01:21:13 10° S visible
02 Jul - 14:20:28 10° SSE 14:25:41 17° SE 14:30:57 10° E daylight
02 Jul - 16:19:49 10° SW 16:28:47 59° SE 16:38:05 10° ENE daylight
02 Jul - 18:24:09 10° W 18:33:30 71° NNW 18:43:16 10° ENE daylight
02 Jul - 20:29:45 10° WNW 20:39:15 65° N 20:49:08 10° E visible
02 Jul - 22:34:47 10° WNW 22:44:30 78° SSW 22:54:34 10° SE visible
03 Jul - 00:40:24 10° WNW 00:48:21 29° SW 00:56:28 10° S visible
03 Jul - 13:56:14 10° SSE 14:00:41 14° ESE 14:05:10 10° E daylight
03 Jul - 15:54:49 10° SW 16:03:41 55° SE 16:12:51 10° ENE daylight
03 Jul - 17:58:57 10° WSW 18:08:17 73° NNW 18:18:01 10° ENE daylight
03 Jul - 20:04:32 10° WNW 20:13:59 64° N 20:23:49 10° E visible
03 Jul - 22:09:36 10° WNW 22:19:19 82° SSW 22:29:23 10° SE visible
04 Jul - 00:15:03 10° WNW 00:23:16 31° SW 00:31:40 10° S visible
04 Jul - 13:32:16 10° SE 13:35:41 13° ESE 13:39:08 10° E daylight
04 Jul - 15:29:50 10° SSW 15:38:35 51° SE 15:47:36 10° ENE daylight
04 Jul - 17:33:45 10° WSW 17:43:04 76° NNW 17:52:46 10° ENE daylight
04 Jul - 19:39:19 10° WNW 19:48:44 63° N 19:58:30 10° E daylight
04 Jul - 21:44:25 10° WNW 21:54:07 86° SSW 22:04:10 10° ESE visible
04 Jul - 23:49:44 10° WNW 23:58:11 34° SW 00:06:49 10° SSE visible
05 Jul - 13:08:58 10° SE 13:10:42 11° ESE 13:12:26 10° ESE daylight
05 Jul - 15:04:53 10° SSW 15:13:30 47° SE 15:22:21 10° ENE daylight
05 Jul - 17:08:34 10° WSW 17:17:51 79° NNW 17:27:32 10° ENE daylight
05 Jul - 19:14:06 10° WNW 19:23:28 63° N 19:33:13 10° E daylight
05 Jul - 21:19:15 10° WNW 21:28:55 89° SW 21:38:57 10° ESE visible
05 Jul - 23:24:27 10° WNW 23:33:05 37° SW 23:41:57 10° SSE visible
